TimeCDT,TemperatureF,Dew PointF,Humidity,Sea Level PressureIn,VisibilityMPH,Wind Direction,Wind SpeedMPH,Gust SpeedMPH,PrecipitationIn,Events,Conditions,WindDirDegrees,DateUTC
12:53 AM,73.0,70.0,90,30.07,8.0,SE,6.9,-,N/A,,Clear,140,2012-10-14 05:53:00
1:53 AM,73.0,70.0,90,30.06,7.0,SE,8.1,-,N/A,,Clear,140,2012-10-14 06:53:00
2:53 AM,73.0,70.0,90,30.04,6.0,SE,6.9,-,N/A,,Clear,140,2012-10-14 07:53:00
3:53 AM,72.0,70.0,93,30.02,4.0,SE,4.6,-,N/A,,Clear,140,2012-10-14 08:53:00
4:53 AM,71.1,69.1,93,30.01,2.5,SSE,3.5,-,N/A,,Clear,150,2012-10-14 09:53:00
5:04 AM,71.6,69.8,94,30.03,1.0,Calm,Calm,-,N/A,,Clear,0,2012-10-14 10:04:00
5:10 AM,71.6,69.8,94,30.03,0.5,Calm,Calm,-,N/A,Fog,Fog,0,2012-10-14 10:10:00
5:25 AM,71.6,69.8,94,30.04,1.0,Calm,Calm,-,N/A,,Partly Cloudy,0,2012-10-14 10:25:00
5:37 AM,71.6,69.8,94,30.04,2.0,ESE,3.5,-,N/A,,Mostly Cloudy,110,2012-10-14 10:37:00
5:48 AM,71.6,69.8,94,30.03,4.0,ESE,4.6,-,N/A,,Scattered Clouds,110,2012-10-14 10:48:00
5:49 AM,71.1,68.0,90,30.03,4.0,ESE,5.8,-,N/A,,Scattered Clouds,110,2012-10-14 10:49:00
6:11 AM,71.6,69.8,94,30.04,1.8,ESE,3.5,-,N/A,,Clear,110,2012-10-14 11:11:00
6:22 AM,69.8,68.0,94,30.04,3.0,ESE,3.5,-,N/A,,Clear,120,2012-10-14 11:22:00
6:32 AM,69.8,68.0,94,30.05,1.8,Calm,Calm,-,N/A,,Clear,0,2012-10-14 11:32:00
6:53 AM,71.1,69.1,93,30.05,0.8,ESE,3.5,-,N/A,,Mist,110,2012-10-14 11:53:00
7:06 AM,71.6,69.8,94,30.06,0.2,Calm,Calm,-,N/A,Fog,Fog,0,2012-10-14 12:06:00
7:39 AM,71.6,69.8,94,30.08,1.0,Calm,Calm,-,N/A,,Mostly Cloudy,0,2012-10-14 12:39:00
7:49 AM,71.6,69.8,94,30.09,2.0,Calm,Calm,-,N/A,,Partly Cloudy,0,2012-10-14 12:49:00
7:53 AM,72.0,69.1,91,30.09,3.0,Calm,Calm,-,N/A,,Partly Cloudy,0,2012-10-14 12:53:00
8:53 AM,78.1,73.9,87,30.10,6.0,ESE,3.5,-,N/A,,Partly Cloudy,120,2012-10-14 13:53:00
9:53 AM,80.1,73.9,81,30.12,10.0,SSE,4.6,-,N/A,,Scattered Clouds,150,2012-10-14 14:53:00
10:53 AM,82.9,72.0,69,30.13,10.0,Variable,3.5,-,N/A,,Clear,0,2012-10-14 15:53:00
11:53 AM,82.9,71.1,67,30.12,10.0,Calm,Calm,-,N/A,,Mostly Cloudy,0,2012-10-14 16:53:00
12:53 PM,84.0,70.0,63,30.08,10.0,SSW,11.5,-,N/A,,Partly Cloudy,200,2012-10-14 17:53:00
1:53 PM,82.9,73.9,74,30.04,10.0,SW,6.9,-,0.03,,Scattered Clouds,230,2012-10-14 18:53:00
3:53 PM,84.0,71.1,65,30.01,10.0,SSW,11.5,-,N/A,,Mostly Cloudy,200,2012-10-14 20:53:00
4:53 PM,84.0,71.1,65,30.01,10.0,South,12.7,-,N/A,,Mostly Cloudy,190,2012-10-14 21:53:00
5:53 PM,82.0,72.0,71,30.00,10.0,SSW,8.1,-,0.00,,Mostly Cloudy,200,2012-10-14 22:53:00
6:53 PM,78.1,72.0,81,30.01,10.0,South,5.8,-,N/A,,Clear,190,2012-10-14 23:53:00
7:53 PM,75.9,71.1,85,30.02,10.0,South,3.5,-,N/A,,Clear,170,2012-10-15 00:53:00
8:53 PM,75.9,72.0,87,30.02,9.0,South,5.8,-,N/A,,Clear,180,2012-10-15 01:53:00
9:53 PM,73.9,72.0,93,30.02,7.0,SSW,3.5,-,N/A,,Clear,200,2012-10-15 02:53:00
10:53 PM,73.9,72.0,93,30.02,4.0,Calm,Calm,-,N/A,,Clear,0,2012-10-15 03:53:00
11:03 PM,73.4,71.6,94,30.02,1.8,SW,3.5,-,N/A,,Clear,230,2012-10-15 04:03:00
11:12 PM,71.6,71.6,100,30.02,0.5,SW,4.6,-,N/A,Fog,Fog,220,2012-10-15 04:12:00
11:21 PM,71.6,71.6,100,30.02,1.5,SW,3.5,-,N/A,,Partly Cloudy,220,2012-10-15 04:21:00
11:35 PM,73.4,71.6,94,30.02,2.0,WSW,3.5,-,N/A,,Partly Cloudy,240,2012-10-15 04:35:00
11:39 PM,71.6,69.8,94,30.02,1.0,WSW,3.5,-,N/A,,Mist,240,2012-10-15 04:39:00
11:45 PM,71.6,69.8,94,30.02,0.2,WSW,3.5,-,N/A,Fog,Fog,240,2012-10-15 04:45:00
11:53 PM,72.0,70.0,93,30.02,0.2,WSW,4.6,-,N/A,Fog,Fog,250,2012-10-15 04:53:00